owner,sensor,date,latitude,longitude,sea_water_turbidity,qcFlag 
NERRS,ioos:station:NOAA.NERRS:marmbwq:1,2015-03-01T00:30:00Z,28.1384,-96.8285,11.0,1111122 
NERRS,ioos:station:NOAA.NERRS:marmbwq:1,2015-03-01T01:30:00Z,28.1384,-96.8285,11.0,1111122 
NERRS,ioos:station:NOAA.NERRS:marmbwq:1,2015-03-01T02:30:00Z,28.1384,-96.8285,11.0,1111122 
NERRS,ioos:station:NOAA.NERRS:marmbwq:1,2015-03-01T03:30:00Z,28.1384,-96.8285,18.0,1111122 
NERRS,ioos:station:NOAA.NERRS:marmbwq:1,2015-03-01T05:30:00Z,28.1384,-96.8285,12.0,1111122 
NERRS,ioos:station:NOAA.NERRS:marmbwq:1,2015-03-01T06:30:00Z,28.1384,-96.8285,11.0,1111122 
NERRS,ioos:station:NOAA.NERRS:marmbwq:1,2015-03-01T07:30:00Z,28.1384,-96.8285,6.0,1111122 
NERRS,ioos:station:NOAA.NERRS:marmbwq:1,2015-03-01T08:30:00Z,28.1384,-96.8285,6.0,1111122 
NERRS,ioos:station:NOAA.NERRS:marmbwq:1,2015-03-01T09:30:00Z,28.1384,-96.8285,6.0,1111122 
NERRS,ioos:station:NOAA.NERRS:marmbwq:1,2015-03-01T10:30:00Z,28.1384,-96.8285,6.0,1111122 
NERRS,ioos:station:NOAA.NERRS:marmbwq:1,2015-03-01T12:30:00Z,28.1384,-96.8285,6.0,1111122 
NERRS,ioos:station:NOAA.NERRS:marmbwq:1,2015-03-01T13:30:00Z,28.1384,-96.8285,9.0,1111122 
NERRS,ioos:station:NOAA.NERRS:marmbwq:1,2015-03-01T14:30:00Z,28.1384,-96.8285,9.0,1111122 
NERRS,ioos:station:NOAA.NERRS:marmbwq:1,2015-03-01T15:30:00Z,28.1384,-96.8285,6.0,1111122 
NERRS,ioos:station:NOAA.NERRS:marmbwq:1,2015-03-01T16:30:00Z,28.1384,-96.8285,6.0,1111122 
NERRS,ioos:station:NOAA.NERRS:marmbwq:1,2015-03-01T17:30:00Z,28.1384,-96.8285,5.0,1111122 
NERRS,ioos:station:NOAA.NERRS:marmbwq:1,2015-03-01T18:30:00Z,28.1384,-96.8285,4.0,1111122 
NERRS,ioos:station:NOAA.NERRS:marmbwq:1,2015-03-01T19:30:00Z,28.1384,-96.8285,3.0,1111122 
NERRS,ioos:station:NOAA.NERRS:marmbwq:1,2015-03-01T20:30:00Z,28.1384,-96.8285,3.0,1111122 
NERRS,ioos:station:NOAA.NERRS:marmbwq:1,2015-03-01T21:30:00Z,28.1384,-96.8285,3.0,1111122 
NERRS,ioos:station:NOAA.NERRS:marmbwq:1,2015-03-01T22:30:00Z,28.1384,-96.8285,3.0,1111122 
NERRS,ioos:station:NOAA.NERRS:marmbwq:1,2015-03-01T23:30:00Z,28.1384,-96.8285,3.0,1111122 
NERRS,ioos:station:NOAA.NERRS:marmbwq:1,2015-03-02T00:30:00Z,28.1384,-96.8285,3.0,1111122 
NERRS,ioos:station:NOAA.NERRS:marmbwq:1,2015-03-02T02:30:00Z,28.1384,-96.8285,4.0,1111122 
NERRS,ioos:station:NOAA.NERRS:marmbwq:1,2015-03-02T03:30:00Z,28.1384,-96.8285,6.0,1111122 
NERRS,ioos:station:NOAA.NERRS:marmbwq:1,2015-03-02T04:30:00Z,28.1384,-96.8285,7.0,1111122 
NERRS,ioos:station:NOAA.NERRS:marmbwq:1,2015-03-02T05:30:00Z,28.1384,-96.8285,9.0,1111122 
NERRS,ioos:station:NOAA.NERRS:marmbwq:1,2015-03-02T06:30:00Z,28.1384,-96.8285,11.0,1111122 
NERRS,ioos:station:NOAA.NERRS:marmbwq:1,2015-03-02T07:30:00Z,28.1384,-96.8285,11.0,1111122 
NERRS,ioos:station:NOAA.NERRS:marmbwq:1,2015-03-02T08:30:00Z,28.1384,-96.8285,10.0,1111122 
NERRS,ioos:station:NOAA.NERRS:marmbwq:1,2015-03-02T09:30:00Z,28.1384,-96.8285,14.0,1111122 
NERRS,ioos:station:NOAA.NERRS:marmbwq:1,2015-03-02T10:30:00Z,28.1384,-96.8285,16.0,1111122 
NERRS,ioos:station:NOAA.NERRS:marmbwq:1,2015-03-02T11:30:00Z,28.1384,-96.8285,14.0,1111122 
NERRS,ioos:station:NOAA.NERRS:marmbwq:1,2015-03-02T12:30:00Z,28.1384,-96.8285,15.0,1111122 
NERRS,ioos:station:NOAA.NERRS:marmbwq:1,2015-03-02T13:30:00Z,28.1384,-96.8285,15.0,1111122 
NERRS,ioos:station:NOAA.NERRS:marmbwq:1,2015-03-02T14:30:00Z,28.1384,-96.8285,17.0,1111122 
NERRS,ioos:station:NOAA.NERRS:marmbwq:1,2015-03-02T15:30:00Z,28.1384,-96.8285,14.0,1111122 
NERRS,ioos:station:NOAA.NERRS:marmbwq:1,2015-03-02T16:30:00Z,28.1384,-96.8285,14.0,1111122 
NERRS,ioos:station:NOAA.NERRS:marmbwq:1,2015-03-02T17:30:00Z,28.1384,-96.8285,11.0,1111122 
NERRS,ioos:station:NOAA.NERRS:marmbwq:1,2015-03-02T18:30:00Z,28.1384,-96.8285,10.0,1111122 
NERRS,ioos:station:NOAA.NERRS:marmbwq:1,2015-03-02T19:30:00Z,28.1384,-96.8285,9.0,1111122 
NERRS,ioos:station:NOAA.NERRS:marmbwq:1,2015-03-02T20:30:00Z,28.1384,-96.8285,5.0,1111122 
NERRS,ioos:station:NOAA.NERRS:marmbwq:1,2015-03-02T21:30:00Z,28.1384,-96.8285,4.0,1111122 
NERRS,ioos:station:NOAA.NERRS:marmbwq:1,2015-03-02T22:30:00Z,28.1384,-96.8285,4.0,1111122 
NERRS,ioos:station:NOAA.NERRS:marmbwq:1,2015-03-03T00:00:00Z,28.1384,-96.8285,3.0,1111122 
NERRS,ioos:station:NOAA.NERRS:marmbwq:1,2015-03-03T00:30:00Z,28.1384,-96.8285,3.0,1111122 
NERRS,ioos:station:NOAA.NERRS:marmbwq:1,2015-03-03T01:30:00Z,28.1384,-96.8285,3.0,1111122 
NERRS,ioos:station:NOAA.NERRS:marmbwq:1,2015-03-03T02:30:00Z,28.1384,-96.8285,3.0,1111122 
NERRS,ioos:station:NOAA.NERRS:marmbwq:1,2015-03-03T03:30:00Z,28.1384,-96.8285,3.0,1111122 
NERRS,ioos:station:NOAA.NERRS:marmbwq:1,2015-03-03T04:30:00Z,28.1384,-96.8285,2.0,1111122 
NERRS,ioos:station:NOAA.NERRS:marmbwq:1,2015-03-03T05:30:00Z,28.1384,-96.8285,2.0,1111122 
NERRS,ioos:station:NOAA.NERRS:marmbwq:1,2015-03-03T06:30:00Z,28.1384,-96.8285,2.0,1111122 
NERRS,ioos:station:NOAA.NERRS:marmbwq:1,2015-03-03T07:30:00Z,28.1384,-96.8285,2.0,1111122 
NERRS,ioos:station:NOAA.NERRS:marmbwq:1,2015-03-03T08:30:00Z,28.1384,-96.8285,2.0,1111122 
NERRS,ioos:station:NOAA.NERRS:marmbwq:1,2015-03-03T09:30:00Z,28.1384,-96.8285,2.0,1111122 
NERRS,ioos:station:NOAA.NERRS:marmbwq:1,2015-03-03T10:30:00Z,28.1384,-96.8285,2.0,1111122 
NERRS,ioos:station:NOAA.NERRS:marmbwq:1,2015-03-03T11:30:00Z,28.1384,-96.8285,2.0,1111122 
NERRS,ioos:station:NOAA.NERRS:marmbwq:1,2015-03-03T14:30:00Z,28.1384,-96.8285,3.0,1111122 
NERRS,ioos:station:NOAA.NERRS:marmbwq:1,2015-03-03T15:30:00Z,28.1384,-96.8285,2.0,1111122 
NERRS,ioos:station:NOAA.NERRS:marmbwq:1,2015-03-03T16:30:00Z,28.1384,-96.8285,2.0,1111122 
NERRS,ioos:station:NOAA.NERRS:marmbwq:1,2015-03-03T17:30:00Z,28.1384,-96.8285,2.0,1111122 
NERRS,ioos:station:NOAA.NERRS:marmbwq:1,2015-03-03T18:30:00Z,28.1384,-96.8285,2.0,1111122 
NERRS,ioos:station:NOAA.NERRS:marmbwq:1,2015-03-03T19:30:00Z,28.1384,-96.8285,2.0,1111122 
NERRS,ioos:station:NOAA.NERRS:marmbwq:1,2015-03-03T20:30:00Z,28.1384,-96.8285,5.0,1111122 
NERRS,ioos:station:NOAA.NERRS:marmbwq:1,2015-03-03T21:30:00Z,28.1384,-96.8285,7.0,1111122 
NERRS,ioos:station:NOAA.NERRS:marmbwq:1,2015-03-03T23:00:00Z,28.1384,-96.8285,6.0,1111122 
NERRS,ioos:station:NOAA.NERRS:marmbwq:1,2015-03-03T23:30:00Z,28.1384,-96.8285,5.0,1111122 
NERRS,ioos:station:NOAA.NERRS:marmbwq:1,2015-03-04T00:30:00Z,28.1384,-96.8285,3.0,1111122 
NERRS,ioos:station:NOAA.NERRS:marmbwq:1,2015-03-04T01:30:00Z,28.1384,-96.8285,2.0,1111122 
NERRS,ioos:station:NOAA.NERRS:marmbwq:1,2015-03-04T04:30:00Z,28.1384,-96.8285,2.0,1111122 
NERRS,ioos:station:NOAA.NERRS:marmbwq:1,2015-03-04T13:30:00Z,28.1384,-96.8285,1.0,1111122 
NERRS,ioos:station:NOAA.NERRS:marmbwq:1,2015-03-04T14:30:00Z,28.1384,-96.8285,2.0,1111122 
NERRS,ioos:station:NOAA.NERRS:marmbwq:1,2015-03-04T17:00:00Z,28.1384,-96.8285,2.0,1111122 
NERRS,ioos:station:NOAA.NERRS:marmbwq:1,2015-03-04T17:30:00Z,28.1384,-96.8285,1.0,1111122 
NERRS,ioos:station:NOAA.NERRS:marmbwq:1,2015-03-04T18:30:00Z,28.1384,-96.8285,1.0,1111122 
NERRS,ioos:station:NOAA.NERRS:marmbwq:1,2015-03-04T20:00:00Z,28.1384,-96.8285,2.0,1111122 
NERRS,ioos:station:NOAA.NERRS:marmbwq:1,2015-03-04T20:30:00Z,28.1384,-96.8285,3.0,1111122 
NERRS,ioos:station:NOAA.NERRS:marmbwq:1,2015-03-04T21:30:00Z,28.1384,-96.8285,3.0,1111122 
NERRS,ioos:station:NOAA.NERRS:marmbwq:1,2015-03-04T22:30:00Z,28.1384,-96.8285,3.0,1111122 
NERRS,ioos:station:NOAA.NERRS:marmbwq:1,2015-03-05T02:30:00Z,28.1384,-96.8285,2.0,1111122 
NERRS,ioos:station:NOAA.NERRS:marmbwq:1,2015-03-05T03:30:00Z,28.1384,-96.8285,2.0,1111122 
NERRS,ioos:station:NOAA.NERRS:marmbwq:1,2015-03-05T04:30:00Z,28.1384,-96.8285,62.0,1111122 
NERRS,ioos:station:NOAA.NERRS:marmbwq:1,2015-03-05T05:30:00Z,28.1384,-96.8285,110.0,1111122 
NERRS,ioos:station:NOAA.NERRS:marmbwq:1,2015-03-05T06:30:00Z,28.1384,-96.8285,137.0,1111122 
NERRS,ioos:station:NOAA.NERRS:marmbwq:1,2015-03-05T07:30:00Z,28.1384,-96.8285,162.0,1111122 
NERRS,ioos:station:NOAA.NERRS:marmbwq:1,2015-03-05T08:30:00Z,28.1384,-96.8285,172.0,1111122 
NERRS,ioos:station:NOAA.NERRS:marmbwq:1,2015-03-05T10:30:00Z,28.1384,-96.8285,164.0,1111122 
NERRS,ioos:station:NOAA.NERRS:marmbwq:1,2015-03-05T11:30:00Z,28.1384,-96.8285,172.0,1111122 
NERRS,ioos:station:NOAA.NERRS:marmbwq:1,2015-03-05T12:30:00Z,28.1384,-96.8285,157.0,1111122 
NERRS,ioos:station:NOAA.NERRS:marmbwq:1,2015-03-05T13:30:00Z,28.1384,-96.8285,218.0,1111122 
NERRS,ioos:station:NOAA.NERRS:marmbwq:1,2015-03-05T14:30:00Z,28.1384,-96.8285,268.0,1111122 
NERRS,ioos:station:NOAA.NERRS:marmbwq:1,2015-03-05T15:30:00Z,28.1384,-96.8285,247.0,1111122 
NERRS,ioos:station:NOAA.NERRS:marmbwq:1,2015-03-05T16:30:00Z,28.1384,-96.8285,212.0,1111122 
NERRS,ioos:station:NOAA.NERRS:marmbwq:1,2015-03-05T17:30:00Z,28.1384,-96.8285,261.0,1111122 
NERRS,ioos:station:NOAA.NERRS:marmbwq:1,2015-03-05T18:30:00Z,28.1384,-96.8285,236.0,1111122 
NERRS,ioos:station:NOAA.NERRS:marmbwq:1,2015-03-05T20:30:00Z,28.1384,-96.8285,225.0,1111122 
NERRS,ioos:station:NOAA.NERRS:marmbwq:1,2015-03-05T21:30:00Z,28.1384,-96.8285,249.0,1111122 
NERRS,ioos:station:NOAA.NERRS:marmbwq:1,2015-03-05T22:30:00Z,28.1384,-96.8285,245.0,1111122 
NERRS,ioos:station:NOAA.NERRS:marmbwq:1,2015-03-05T23:30:00Z,28.1384,-96.8285,177.0,1111122 
NERRS,ioos:station:NOAA.NERRS:marmbwq:1,2015-03-06T00:30:00Z,28.1384,-96.8285,162.0,1111122 
NERRS,ioos:station:NOAA.NERRS:marmbwq:1,2015-03-06T01:30:00Z,28.1384,-96.8285,160.0,1111122 
NERRS,ioos:station:NOAA.NERRS:marmbwq:1,2015-03-06T02:30:00Z,28.1384,-96.8285,112.0,1111122 
NERRS,ioos:station:NOAA.NERRS:marmbwq:1,2015-03-06T03:30:00Z,28.1384,-96.8285,102.0,1111122 
NERRS,ioos:station:NOAA.NERRS:marmbwq:1,2015-03-06T04:30:00Z,28.1384,-96.8285,82.0,1111122 
NERRS,ioos:station:NOAA.NERRS:marmbwq:1,2015-03-06T05:30:00Z,28.1384,-96.8285,79.0,1111122 
NERRS,ioos:station:NOAA.NERRS:marmbwq:1,2015-03-06T07:30:00Z,28.1384,-96.8285,108.0,1111122 
NERRS,ioos:station:NOAA.NERRS:marmbwq:1,2015-03-06T08:30:00Z,28.1384,-96.8285,122.0,1111122 
NERRS,ioos:station:NOAA.NERRS:marmbwq:1,2015-03-06T10:00:00Z,28.1384,-96.8285,104.0,1111122 
NERRS,ioos:station:NOAA.NERRS:marmbwq:1,2015-03-06T10:30:00Z,28.1384,-96.8285,94.0,1111122 
NERRS,ioos:station:NOAA.NERRS:marmbwq:1,2015-03-06T11:00:00Z,28.1384,-96.8285,83.0,1111122 
NERRS,ioos:station:NOAA.NERRS:marmbwq:1,2015-03-06T12:30:00Z,28.1384,-96.8285,72.0,1111122 
NERRS,ioos:station:NOAA.NERRS:marmbwq:1,2015-03-06T13:30:00Z,28.1384,-96.8285,72.0,1111122 
NERRS,ioos:station:NOAA.NERRS:marmbwq:1,2015-03-06T14:30:00Z,28.1384,-96.8285,84.0,1111122 
NERRS,ioos:station:NOAA.NERRS:marmbwq:1,2015-03-06T15:30:00Z,28.1384,-96.8285,78.0,1111122 
NERRS,ioos:station:NOAA.NERRS:marmbwq:1,2015-03-06T16:30:00Z,28.1384,-96.8285,72.0,1111122 
NERRS,ioos:station:NOAA.NERRS:marmbwq:1,2015-03-06T17:30:00Z,28.1384,-96.8285,68.0,1111122 
NERRS,ioos:station:NOAA.NERRS:marmbwq:1,2015-03-06T18:30:00Z,28.1384,-96.8285,66.0,1111122 
NERRS,ioos:station:NOAA.NERRS:marmbwq:1,2015-03-06T19:30:00Z,28.1384,-96.8285,44.0,1111122 
NERRS,ioos:station:NOAA.NERRS:marmbwq:1,2015-03-06T20:30:00Z,28.1384,-96.8285,20.0,1111122 
NERRS,ioos:station:NOAA.NERRS:marmbwq:1,2015-03-06T21:30:00Z,28.1384,-96.8285,17.0,1111122 
NERRS,ioos:station:NOAA.NERRS:marmbwq:1,2015-03-06T22:30:00Z,28.1384,-96.8285,12.0,1111122 
NERRS,ioos:station:NOAA.NERRS:marmbwq:1,2015-03-06T23:30:00Z,28.1384,-96.8285,11.0,1111122 
NERRS,ioos:station:NOAA.NERRS:marmbwq:1,2015-03-07T00:30:00Z,28.1384,-96.8285,10.0,1111122 
NERRS,ioos:station:NOAA.NERRS:marmbwq:1,2015-03-07T01:30:00Z,28.1384,-96.8285,10.0,1111122 
NERRS,ioos:station:NOAA.NERRS:marmbwq:1,2015-03-07T02:30:00Z,28.1384,-96.8285,10.0,1111122 
NERRS,ioos:station:NOAA.NERRS:marmbwq:1,2015-03-07T03:30:00Z,28.1384,-96.8285,8.0,1111122 
NERRS,ioos:station:NOAA.NERRS:marmbwq:1,2015-03-07T04:30:00Z,28.1384,-96.8285,6.0,1111122 
NERRS,ioos:station:NOAA.NERRS:marmbwq:1,2015-03-07T05:30:00Z,28.1384,-96.8285,7.0,1111122 
NERRS,ioos:station:NOAA.NERRS:marmbwq:1,2015-03-07T06:30:00Z,28.1384,-96.8285,7.0,1111122 
NERRS,ioos:station:NOAA.NERRS:marmbwq:1,2015-03-07T07:30:00Z,28.1384,-96.8285,6.0,1111122 
NERRS,ioos:station:NOAA.NERRS:marmbwq:1,2015-03-07T08:30:00Z,28.1384,-96.8285,6.0,1111122 
NERRS,ioos:station:NOAA.NERRS:marmbwq:1,2015-03-07T09:30:00Z,28.1384,-96.8285,6.0,1111122 
NERRS,ioos:station:NOAA.NERRS:marmbwq:1,2015-03-07T11:30:00Z,28.1384,-96.8285,5.0,1111122 
NERRS,ioos:station:NOAA.NERRS:marmbwq:1,2015-03-07T12:30:00Z,28.1384,-96.8285,5.0,1111122 
NERRS,ioos:station:NOAA.NERRS:marmbwq:1,2015-03-07T13:30:00Z,28.1384,-96.8285,5.0,1111122 
NERRS,ioos:station:NOAA.NERRS:marmbwq:1,2015-03-07T14:30:00Z,28.1384,-96.8285,4.0,1111122 
NERRS,ioos:station:NOAA.NERRS:marmbwq:1,2015-03-07T15:30:00Z,28.1384,-96.8285,5.0,1111122 
NERRS,ioos:station:NOAA.NERRS:marmbwq:1,2015-03-07T16:30:00Z,28.1384,-96.8285,6.0,1111122 
NERRS,ioos:station:NOAA.NERRS:marmbwq:1,2015-03-07T17:30:00Z,28.1384,-96.8285,6.0,1111122 
NERRS,ioos:station:NOAA.NERRS:marmbwq:1,2015-03-07T18:30:00Z,28.1384,-96.8285,6.0,1111122 
NERRS,ioos:station:NOAA.NERRS:marmbwq:1,2015-03-07T19:30:00Z,28.1384,-96.8285,8.0,1111122 
NERRS,ioos:station:NOAA.NERRS:marmbwq:1,2015-03-07T20:30:00Z,28.1384,-96.8285,9.0,1111122 
NERRS,ioos:station:NOAA.NERRS:marmbwq:1,2015-03-07T21:30:00Z,28.1384,-96.8285,8.0,1111122 
NERRS,ioos:station:NOAA.NERRS:marmbwq:1,2015-03-07T22:30:00Z,28.1384,-96.8285,8.0,1111122 
NERRS,ioos:station:NOAA.NERRS:marmbwq:1,2015-03-07T23:30:00Z,28.1384,-96.8285,8.0,1111122 
NERRS,ioos:station:NOAA.NERRS:marmbwq:1,2015-03-08T00:30:00Z,28.1384,-96.8285,10.0,1111122 
NERRS,ioos:station:NOAA.NERRS:marmbwq:1,2015-03-08T01:30:00Z,28.1384,-96.8285,13.0,1111122 
NERRS,ioos:station:NOAA.NERRS:marmbwq:1,2015-03-08T02:30:00Z,28.1384,-96.8285,11.0,1111122 
NERRS,ioos:station:NOAA.NERRS:marmbwq:1,2015-03-08T03:30:00Z,28.1384,-96.8285,11.0,1111122 
NERRS,ioos:station:NOAA.NERRS:marmbwq:1,2015-03-08T04:30:00Z,28.1384,-96.8285,10.0,1111122 
NERRS,ioos:station:NOAA.NERRS:marmbwq:1,2015-03-08T05:30:00Z,28.1384,-96.8285,9.0,1111122 
NERRS,ioos:station:NOAA.NERRS:marmbwq:1,2015-03-08T07:30:00Z,28.1384,-96.8285,6.0,1111122 
NERRS,ioos:station:NOAA.NERRS:marmbwq:1,2015-03-08T08:30:00Z,28.1384,-96.8285,7.0,1111122 
NERRS,ioos:station:NOAA.NERRS:marmbwq:1,2015-03-08T09:30:00Z,28.1384,-96.8285,6.0,1111122 
NERRS,ioos:station:NOAA.NERRS:marmbwq:1,2015-03-08T10:30:00Z,28.1384,-96.8285,6.0,1111122 
NERRS,ioos:station:NOAA.NERRS:marmbwq:1,2015-03-08T11:30:00Z,28.1384,-96.8285,6.0,1111122 
NERRS,ioos:station:NOAA.NERRS:marmbwq:1,2015-03-08T12:30:00Z,28.1384,-96.8285,6.0,1111122 
NERRS,ioos:station:NOAA.NERRS:marmbwq:1,2015-03-08T13:30:00Z,28.1384,-96.8285,6.0,1111122 
NERRS,ioos:station:NOAA.NERRS:marmbwq:1,2015-03-08T14:30:00Z,28.1384,-96.8285,5.0,1111122 
NERRS,ioos:station:NOAA.NERRS:marmbwq:1,2015-03-08T15:30:00Z,28.1384,-96.8285,5.0,1111122 
NERRS,ioos:station:NOAA.NERRS:marmbwq:1,2015-03-08T16:30:00Z,28.1384,-96.8285,4.0,1111122 
NERRS,ioos:station:NOAA.NERRS:marmbwq:1,2015-03-08T17:30:00Z,28.1384,-96.8285,4.0,1111122 
NERRS,ioos:station:NOAA.NERRS:marmbwq:1,2015-03-08T18:30:00Z,28.1384,-96.8285,4.0,1111122 
NERRS,ioos:station:NOAA.NERRS:marmbwq:1,2015-03-08T19:30:00Z,28.1384,-96.8285,4.0,1111122 
NERRS,ioos:station:NOAA.NERRS:marmbwq:1,2015-03-08T20:30:00Z,28.1384,-96.8285,4.0,1111122 
NERRS,ioos:station:NOAA.NERRS:marmbwq:1,2015-03-08T21:30:00Z,28.1384,-96.8285,7.0,1111122 
NERRS,ioos:station:NOAA.NERRS:marmbwq:1,2015-03-08T22:30:00Z,28.1384,-96.8285,10.0,1111122 
NERRS,ioos:station:NOAA.NERRS:marmbwq:1,2015-03-08T23:30:00Z,28.1384,-96.8285,10.0,1111122 
NERRS,ioos:station:NOAA.NERRS:marmbwq:1,2015-03-09T00:30:00Z,28.1384,-96.8285,8.0,1111122 
NERRS,ioos:station:NOAA.NERRS:marmbwq:1,2015-03-09T01:30:00Z,28.1384,-96.8285,7.0,1111122 
NERRS,ioos:station:NOAA.NERRS:marmbwq:1,2015-03-09T02:30:00Z,28.1384,-96.8285,6.0,1111122 
NERRS,ioos:station:NOAA.NERRS:marmbwq:1,2015-03-09T03:30:00Z,28.1384,-96.8285,6.0,1111122 
NERRS,ioos:station:NOAA.NERRS:marmbwq:1,2015-03-09T04:30:00Z,28.1384,-96.8285,4.0,1111122 
NERRS,ioos:station:NOAA.NERRS:marmbwq:1,2015-03-09T05:30:00Z,28.1384,-96.8285,4.0,1111122 
NERRS,ioos:station:NOAA.NERRS:marmbwq:1,2015-03-09T06:30:00Z,28.1384,-96.8285,4.0,1111122 
NERRS,ioos:station:NOAA.NERRS:marmbwq:1,2015-03-09T07:30:00Z,28.1384,-96.8285,4.0,1111122 
NERRS,ioos:station:NOAA.NERRS:marmbwq:1,2015-03-09T08:30:00Z,28.1384,-96.8285,3.0,1111122 
NERRS,ioos:station:NOAA.NERRS:marmbwq:1,2015-03-09T09:30:00Z,28.1384,-96.8285,4.0,1111122 
NERRS,ioos:station:NOAA.NERRS:marmbwq:1,2015-03-09T14:30:00Z,28.1384,-96.8285,4.0,1111122 
NERRS,ioos:station:NOAA.NERRS:marmbwq:1,2015-03-09T15:30:00Z,28.1384,-96.8285,3.0,1111122 
NERRS,ioos:station:NOAA.NERRS:marmbwq:1,2015-03-09T16:30:00Z,28.1384,-96.8285,5.0,1111122 
NERRS,ioos:station:NOAA.NERRS:marmbwq:1,2015-03-09T17:30:00Z,28.1384,-96.8285,8.0,1111122 
NERRS,ioos:station:NOAA.NERRS:marmbwq:1,2015-03-09T18:30:00Z,28.1384,-96.8285,6.0,1111122 
NERRS,ioos:station:NOAA.NERRS:marmbwq:1,2015-03-09T19:30:00Z,28.1384,-96.8285,7.0,1111122 
NERRS,ioos:station:NOAA.NERRS:marmbwq:1,2015-03-09T20:30:00Z,28.1384,-96.8285,4.0,1111122 
NERRS,ioos:station:NOAA.NERRS:marmbwq:1,2015-03-09T22:30:00Z,28.1384,-96.8285,5.0,1111122 
NERRS,ioos:station:NOAA.NERRS:marmbwq:1,2015-03-09T23:30:00Z,28.1384,-96.8285,4.0,1111122 
NERRS,ioos:station:NOAA.NERRS:marmbwq:1,2015-03-10T00:30:00Z,28.1384,-96.8285,3.0,1111122 
NERRS,ioos:station:NOAA.NERRS:marmbwq:1,2015-03-10T01:30:00Z,28.1384,-96.8285,3.0,1111122 
NERRS,ioos:station:NOAA.NERRS:marmbwq:1,2015-03-10T02:30:00Z,28.1384,-96.8285,2.0,1111122 
NERRS,ioos:station:NOAA.NERRS:marmbwq:1,2015-03-10T03:30:00Z,28.1384,-96.8285,2.0,1111122 
NERRS,ioos:station:NOAA.NERRS:marmbwq:1,2015-03-10T04:30:00Z,28.1384,-96.8285,2.0,1111122 
NERRS,ioos:station:NOAA.NERRS:marmbwq:1,2015-03-10T05:30:00Z,28.1384,-96.8285,3.0,1111122 
NERRS,ioos:station:NOAA.NERRS:marmbwq:1,2015-03-10T07:30:00Z,28.1384,-96.8285,2.0,1111122 
NERRS,ioos:station:NOAA.NERRS:marmbwq:1,2015-03-10T08:30:00Z,28.1384,-96.8285,2.0,1111122 
NERRS,ioos:station:NOAA.NERRS:marmbwq:1,2015-03-10T09:30:00Z,28.1384,-96.8285,2.0,1111122 
NERRS,ioos:station:NOAA.NERRS:marmbwq:1,2015-03-10T10:30:00Z,28.1384,-96.8285,2.0,1111122 
NERRS,ioos:station:NOAA.NERRS:marmbwq:1,2015-03-10T11:30:00Z,28.1384,-96.8285,2.0,1111122 
NERRS,ioos:station:NOAA.NERRS:marmbwq:1,2015-03-10T12:30:00Z,28.1384,-96.8285,2.0,1111122 
NERRS,ioos:station:NOAA.NERRS:marmbwq:1,2015-03-10T14:30:00Z,28.1384,-96.8285,6.0,1111122 
NERRS,ioos:station:NOAA.NERRS:marmbwq:1,2015-03-10T15:30:00Z,28.1384,-96.8285,7.0,1111122 
NERRS,ioos:station:NOAA.NERRS:marmbwq:1,2015-03-10T16:30:00Z,28.1384,-96.8285,10.0,1111122 
NERRS,ioos:station:NOAA.NERRS:marmbwq:1,2015-03-10T17:30:00Z,28.1384,-96.8285,11.0,1111122 
NERRS,ioos:station:NOAA.NERRS:marmbwq:1,2015-03-10T18:30:00Z,28.1384,-96.8285,13.0,1111122 
NERRS,ioos:station:NOAA.NERRS:marmbwq:1,2015-03-10T19:30:00Z,28.1384,-96.8285,9.0,1111122 
NERRS,ioos:station:NOAA.NERRS:marmbwq:1,2015-03-10T20:30:00Z,28.1384,-96.8285,7.0,1111122 
NERRS,ioos:station:NOAA.NERRS:marmbwq:1,2015-03-10T21:30:00Z,28.1384,-96.8285,8.0,1111122 
NERRS,ioos:station:NOAA.NERRS:marmbwq:1,2015-03-10T22:30:00Z,28.1384,-96.8285,8.0,1111122 
NERRS,ioos:station:NOAA.NERRS:marmbwq:1,2015-03-10T23:30:00Z,28.1384,-96.8285,8.0,1111122 
NERRS,ioos:station:NOAA.NERRS:marmbwq:1,2015-03-11T00:30:00Z,28.1384,-96.8285,5.0,1111122 
NERRS,ioos:station:NOAA.NERRS:marmbwq:1,2015-03-11T02:30:00Z,28.1384,-96.8285,5.0,1111122 
NERRS,ioos:station:NOAA.NERRS:marmbwq:1,2015-03-11T03:30:00Z,28.1384,-96.8285,5.0,1111122 
NERRS,ioos:station:NOAA.NERRS:marmbwq:1,2015-03-11T04:30:00Z,28.1384,-96.8285,5.0,1111122 
NERRS,ioos:station:NOAA.NERRS:marmbwq:1,2015-03-11T05:30:00Z,28.1384,-96.8285,7.0,1111122 
NERRS,ioos:station:NOAA.NERRS:marmbwq:1,2015-03-11T07:30:00Z,28.1384,-96.8285,13.0,1111122 
NERRS,ioos:station:NOAA.NERRS:marmbwq:1,2015-03-11T08:30:00Z,28.1384,-96.8285,18.0,1111122 
NERRS,ioos:station:NOAA.NERRS:marmbwq:1,2015-03-11T09:30:00Z,28.1384,-96.8285,18.0,1111122 
NERRS,ioos:station:NOAA.NERRS:marmbwq:1,2015-03-11T10:30:00Z,28.1384,-96.8285,17.0,1111122 
NERRS,ioos:station:NOAA.NERRS:marmbwq:1,2015-03-11T11:30:00Z,28.1384,-96.8285,16.0,1111122 
NERRS,ioos:station:NOAA.NERRS:marmbwq:1,2015-03-11T13:30:00Z,28.1384,-96.8285,23.0,1111122 
NERRS,ioos:station:NOAA.NERRS:marmbwq:1,2015-03-11T14:30:00Z,28.1384,-96.8285,25.0,1111122 
NERRS,ioos:station:NOAA.NERRS:marmbwq:1,2015-03-11T15:30:00Z,28.1384,-96.8285,31.0,1111122 
NERRS,ioos:station:NOAA.NERRS:marmbwq:1,2015-03-11T16:30:00Z,28.1384,-96.8285,38.0,1111122 
NERRS,ioos:station:NOAA.NERRS:marmbwq:1,2015-03-11T17:30:00Z,28.1384,-96.8285,40.0,1111122 
NERRS,ioos:station:NOAA.NERRS:marmbwq:1,2015-03-11T18:30:00Z,28.1384,-96.8285,42.0,1111122 
NERRS,ioos:station:NOAA.NERRS:marmbwq:1,2015-03-11T19:30:00Z,28.1384,-96.8285,48.0,1111122 
NERRS,ioos:station:NOAA.NERRS:marmbwq:1,2015-03-11T20:30:00Z,28.1384,-96.8285,49.0,1111122 
NERRS,ioos:station:NOAA.NERRS:marmbwq:1,2015-03-11T21:30:00Z,28.1384,-96.8285,48.0,1111122 
NERRS,ioos:station:NOAA.NERRS:marmbwq:1,2015-03-11T22:30:00Z,28.1384,-96.8285,48.0,1111122 
NERRS,ioos:station:NOAA.NERRS:marmbwq:1,2015-03-11T23:30:00Z,28.1384,-96.8285,36.0,1111122 
NERRS,ioos:station:NOAA.NERRS:marmbwq:1,2015-03-12T00:30:00Z,28.1384,-96.8285,26.0,1111122 
NERRS,ioos:station:NOAA.NERRS:marmbwq:1,2015-03-12T01:30:00Z,28.1384,-96.8285,18.0,1111122 
NERRS,ioos:station:NOAA.NERRS:marmbwq:1,2015-03-12T02:30:00Z,28.1384,-96.8285,14.0,1111122 
NERRS,ioos:station:NOAA.NERRS:marmbwq:1,2015-03-12T03:30:00Z,28.1384,-96.8285,11.0,1111122 
NERRS,ioos:station:NOAA.NERRS:marmbwq:1,2015-03-12T04:30:00Z,28.1384,-96.8285,12.0,1111122 
NERRS,ioos:station:NOAA.NERRS:marmbwq:1,2015-03-12T05:30:00Z,28.1384,-96.8285,13.0,1111122 
NERRS,ioos:station:NOAA.NERRS:marmbwq:1,2015-03-12T07:30:00Z,28.1384,-96.8285,19.0,1111122 
NERRS,ioos:station:NOAA.NERRS:marmbwq:1,2015-03-12T08:30:00Z,28.1384,-96.8285,18.0,1111122 
NERRS,ioos:station:NOAA.NERRS:marmbwq:1,2015-03-12T10:00:00Z,28.1384,-96.8285,18.0,1111122 
NERRS,ioos:station:NOAA.NERRS:marmbwq:1,2015-03-12T10:30:00Z,28.1384,-96.8285,18.0,1111122 
NERRS,ioos:station:NOAA.NERRS:marmbwq:1,2015-03-12T11:30:00Z,28.1384,-96.8285,19.0,1111122 
NERRS,ioos:station:NOAA.NERRS:marmbwq:1,2015-03-12T12:30:00Z,28.1384,-96.8285,21.0,1111122 
NERRS,ioos:station:NOAA.NERRS:marmbwq:1,2015-03-12T13:30:00Z,28.1384,-96.8285,24.0,1111122 
NERRS,ioos:station:NOAA.NERRS:marmbwq:1,2015-03-12T14:30:00Z,28.1384,-96.8285,23.0,1111122 
NERRS,ioos:station:NOAA.NERRS:marmbwq:1,2015-03-12T15:30:00Z,28.1384,-96.8285,25.0,1111122 
NERRS,ioos:station:NOAA.NERRS:marmbwq:1,2015-03-13T20:30:00Z,28.1384,-96.8285,2.0,1111122 
NERRS,ioos:station:NOAA.NERRS:marmbwq:1,2015-03-13T21:30:00Z,28.1384,-96.8285,4.0,1111122 
NERRS,ioos:station:NOAA.NERRS:marmbwq:1,2015-03-13T22:30:00Z,28.1384,-96.8285,5.0,1111122 
NERRS,ioos:station:NOAA.NERRS:marmbwq:1,2015-03-13T23:30:00Z,28.1384,-96.8285,3.0,1111122 
NERRS,ioos:station:NOAA.NERRS:marmbwq:1,2015-03-14T00:30:00Z,28.1384,-96.8285,4.0,1111122 
NERRS,ioos:station:NOAA.NERRS:marmbwq:1,2015-03-14T02:30:00Z,28.1384,-96.8285,7.0,1111122 
NERRS,ioos:station:NOAA.NERRS:marmbwq:1,2015-03-14T03:30:00Z,28.1384,-96.8285,5.0,1111122 
NERRS,ioos:station:NOAA.NERRS:marmbwq:1,2015-03-14T04:30:00Z,28.1384,-96.8285,6.0,1111122 
NERRS,ioos:station:NOAA.NERRS:marmbwq:1,2015-03-14T05:30:00Z,28.1384,-96.8285,6.0,1111122 
NERRS,ioos:station:NOAA.NERRS:marmbwq:1,2015-03-14T06:30:00Z,28.1384,-96.8285,7.0,1111122 
NERRS,ioos:station:NOAA.NERRS:marmbwq:1,2015-03-14T08:30:00Z,28.1384,-96.8285,6.0,1111122 
NERRS,ioos:station:NOAA.NERRS:marmbwq:1,2015-03-14T09:30:00Z,28.1384,-96.8285,7.0,1111122 
NERRS,ioos:station:NOAA.NERRS:marmbwq:1,2015-03-14T10:30:00Z,28.1384,-96.8285,6.0,1111122 
NERRS,ioos:station:NOAA.NERRS:marmbwq:1,2015-03-14T11:30:00Z,28.1384,-96.8285,5.0,1111122 
NERRS,ioos:station:NOAA.NERRS:marmbwq:1,2015-03-14T13:30:00Z,28.1384,-96.8285,3.0,1111122 
NERRS,ioos:station:NOAA.NERRS:marmbwq:1,2015-03-14T14:30:00Z,28.1384,-96.8285,4.0,1111122 